Time,TemperatureF,DewpointF,PressureIn,WindDirection,WindDirectionDegrees,WindSpeedMPH,WindSpeedGustMPH,Humidity,HourlyPrecipIn,Conditions,Clouds,dailyrainin,SoftwareType,DateUTC
2013-05-19 00:03:00,69.0,61.0,-100.00,SE,125,4.0,7.0,76,0.00,,,-99.99,,2013-05-19 04:03:00,
2013-05-19 00:12:00,69.0,61.0,-100.00,SE,125,2.0,9.0,76,0.00,,,-99.99,,2013-05-19 04:12:00,
2013-05-19 00:23:00,68.0,61.0,-100.00,ESE,110,3.0,6.0,78,0.00,,,-99.99,,2013-05-19 04:23:00,
2013-05-19 00:33:00,68.0,61.0,-100.00,ESE,110,3.0,6.0,79,0.00,,,-99.99,,2013-05-19 04:33:00,
2013-05-19 00:42:00,68.0,61.0,-100.00,ESE,110,3.0,6.0,79,0.00,,,-99.99,,2013-05-19 04:42:00,
2013-05-19 00:52:00,68.0,61.0,-100.00,ESE,115,5.0,9.0,79,0.00,,,-99.99,,2013-05-19 04:52:00,
2013-05-19 01:02:00,68.0,61.0,-100.00,ESE,105,4.0,7.0,78,0.00,,,-99.99,,2013-05-19 05:02:00,
2013-05-19 01:12:00,67.0,61.0,-100.00,ESE,110,3.0,6.0,79,0.00,,,-99.99,,2013-05-19 05:12:00,
2013-05-19 01:22:00,67.0,60.0,-100.00,ESE,110,2.0,5.0,80,0.00,,,-99.99,,2013-05-19 05:22:00,
2013-05-19 01:32:00,67.0,60.0,-100.00,ESE,120,3.0,5.0,80,0.00,,,-99.99,,2013-05-19 05:32:00,
2013-05-19 01:42:00,66.0,60.0,-100.00,East,100,2.0,4.0,81,0.00,,,-99.99,,2013-05-19 05:42:00,
2013-05-19 01:51:00,66.0,60.0,-100.00,SE,125,2.0,5.0,80,0.00,,,-99.99,,2013-05-19 05:51:00,
2013-05-19 02:02:00,66.0,60.0,-100.00,East,95,3.0,5.0,81,0.00,,,-99.99,,2013-05-19 06:02:00,
2013-05-19 02:12:00,66.0,60.0,-100.00,East,100,1.0,4.0,82,0.00,,,-99.99,,2013-05-19 06:12:00,
2013-05-19 02:21:00,65.0,60.0,-100.00,East,100,2.0,4.0,82,0.00,,,-99.99,,2013-05-19 06:21:00,
2013-05-19 02:32:00,65.0,60.0,-100.00,ESE,105,2.0,5.0,84,0.00,,,-99.99,,2013-05-19 06:32:00,
2013-05-19 02:42:00,65.0,60.0,-100.00,ESE,120,1.0,4.0,83,0.00,,,-99.99,,2013-05-19 06:42:00,
2013-05-19 02:52:00,65.0,60.0,-100.00,SSE,155,0.0,3.0,83,0.00,,,-99.99,,2013-05-19 06:52:00,
2013-05-19 03:01:00,65.0,60.0,-100.00,SSE,155,0.0,3.0,83,0.00,,,-99.99,,2013-05-19 07:01:00,
2013-05-19 03:11:00,65.0,60.0,-100.00,East,95,1.0,4.0,84,0.00,,,-99.99,,2013-05-19 07:11:00,
2013-05-19 03:21:00,65.0,60.0,-100.00,ENE,75,1.0,2.0,85,0.00,,,-99.99,,2013-05-19 07:21:00,
2013-05-19 03:32:00,64.0,60.0,-100.00,East,85,1.0,1.0,86,0.00,,,-99.99,,2013-05-19 07:32:00,
2013-05-19 03:42:00,63.0,60.0,-100.00,East,95,1.0,2.0,88,0.00,,,-99.99,,2013-05-19 07:42:00,
2013-05-19 03:52:00,63.0,60.0,-100.00,SE,135,1.0,3.0,89,0.00,,,-99.99,,2013-05-19 07:52:00,
2013-05-19 04:02:00,64.0,60.0,-100.00,SE,130,1.0,3.0,87,0.00,,,-99.99,,2013-05-19 08:02:00,
2013-05-19 04:12:00,64.0,60.0,-100.00,ESE,110,2.0,4.0,87,0.00,,,-99.99,,2013-05-19 08:12:00,
2013-05-19 04:22:00,64.0,60.0,-100.00,SE,140,2.0,5.0,87,0.00,,,-99.99,,2013-05-19 08:22:00,
2013-05-19 04:32:00,64.0,60.0,-100.00,SE,135,2.0,6.0,88,0.00,,,-99.99,,2013-05-19 08:32:00,
2013-05-19 04:42:00,64.0,60.0,-100.00,ESE,115,2.0,6.0,88,0.00,,,-99.99,,2013-05-19 08:42:00,
2013-05-19 04:52:00,64.0,60.0,-100.00,SE,135,1.0,6.0,89,0.00,,,-99.99,,2013-05-19 08:52:00,
2013-05-19 05:02:00,63.0,60.0,-100.00,SE,135,2.0,3.0,89,0.00,,,-99.99,,2013-05-19 09:02:00,
2013-05-19 05:12:00,63.0,60.0,-100.00,SE,135,2.0,3.0,90,0.00,,,-99.99,,2013-05-19 09:12:00,
2013-05-19 05:21:00,63.0,60.0,-100.00,SE,140,1.0,3.0,91,0.00,,,-99.99,,2013-05-19 09:21:00,
2013-05-19 05:32:00,62.0,60.0,-100.00,SE,145,0.0,1.0,92,0.00,,,-99.99,,2013-05-19 09:32:00,
2013-05-19 05:43:00,62.0,60.0,-100.00,East,95,1.0,2.0,92,0.00,,,-99.99,,2013-05-19 09:43:00,
2013-05-19 05:53:00,62.0,60.0,-100.00,SE,135,1.0,3.0,93,0.00,,,-99.99,,2013-05-19 09:53:00,
2013-05-19 06:03:00,62.0,60.0,-100.00,East,90,1.0,2.0,93,0.00,,,-99.99,,2013-05-19 10:03:00,
2013-05-19 06:12:00,62.0,60.0,-100.00,ESE,110,1.0,3.0,94,0.00,,,-99.99,,2013-05-19 10:12:00,
2013-05-19 06:23:00,62.0,60.0,-100.00,ESE,120,1.0,2.0,94,0.00,,,-99.99,,2013-05-19 10:23:00,
2013-05-19 06:33:00,62.0,60.0,-100.00,ESE,115,1.0,2.0,94,0.00,,,-99.99,,2013-05-19 10:33:00,
2013-05-19 06:42:00,62.0,60.0,-100.00,East,80,1.0,2.0,94,0.00,,,-99.99,,2013-05-19 10:42:00,
2013-05-19 06:52:00,62.0,60.0,-100.00,NE,40,1.0,3.0,93,0.00,,,-99.99,,2013-05-19 10:52:00,
2013-05-19 07:02:00,62.0,61.0,-100.00,NNE,20,0.0,1.0,93,0.00,,,-99.99,,2013-05-19 11:02:00,
2013-05-19 07:12:00,62.0,60.0,-100.00,ENE,60,1.0,1.0,93,0.00,,,-99.99,,2013-05-19 11:12:00,
2013-05-19 07:21:00,63.0,61.0,-100.00,NE,45,1.0,2.0,92,0.00,,,-99.99,,2013-05-19 11:21:00,
2013-05-19 07:32:00,63.0,61.0,-100.00,NNE,20,1.0,1.0,91,0.00,,,-99.99,,2013-05-19 11:32:00,
2013-05-19 07:42:00,63.0,61.0,-100.00,North,10,1.0,2.0,91,0.00,,,-99.99,,2013-05-19 11:42:00,
2013-05-19 07:52:00,64.0,61.0,-100.00,ENE,60,1.0,2.0,91,0.00,,,-99.99,,2013-05-19 11:52:00,
2013-05-19 08:01:00,65.0,61.0,-100.00,North,10,2.0,4.0,87,0.00,,,-99.99,,2013-05-19 12:01:00,
2013-05-19 08:11:00,65.0,62.0,-100.00,ENE,70,2.0,3.0,88,0.00,,,-99.99,,2013-05-19 12:11:00,
2013-05-19 08:22:00,66.0,62.0,-100.00,ENE,75,3.0,4.0,88,0.00,,,-99.99,,2013-05-19 12:22:00,
2013-05-19 08:32:00,67.0,62.0,-100.00,SE,125,4.0,6.0,84,0.00,,,-99.99,,2013-05-19 12:32:00,
2013-05-19 08:42:00,68.0,63.0,-100.00,East,95,4.0,8.0,83,0.00,,,-99.99,,2013-05-19 12:42:00,
2013-05-19 08:52:00,67.0,62.0,-100.00,East,95,3.0,7.0,84,0.00,,,-99.99,,2013-05-19 12:52:00,
2013-05-19 09:01:00,66.0,62.0,-100.00,ESE,115,4.0,7.0,86,0.00,,,-99.99,,2013-05-19 13:01:00,
2013-05-19 09:11:00,66.0,62.0,-100.00,ESE,120,5.0,9.0,87,0.00,,,-99.99,,2013-05-19 13:11:00,
2013-05-19 09:21:00,67.0,62.0,-100.00,ESE,110,6.0,9.0,86,0.00,,,-99.99,,2013-05-19 13:21:00,
2013-05-19 09:32:00,68.0,63.0,-100.00,ESE,115,6.0,9.0,84,0.00,,,-99.99,,2013-05-19 13:32:00,
2013-05-19 09:42:00,67.0,63.0,-100.00,East,100,6.0,9.0,84,0.00,,,-99.99,,2013-05-19 13:42:00,
2013-05-19 09:52:00,67.0,63.0,-100.00,East,95,4.0,11.0,85,0.00,,,-99.99,,2013-05-19 13:52:00,
2013-05-19 10:02:00,68.0,62.0,-100.00,ESE,120,6.0,9.0,82,0.00,,,-99.99,,2013-05-19 14:02:00,
2013-05-19 10:11:00,68.0,63.0,-100.00,ESE,105,5.0,9.0,82,0.00,,,-99.99,,2013-05-19 14:11:00,
2013-05-19 10:21:00,69.0,63.0,-100.00,SE,130,6.0,9.0,81,0.00,,,-99.99,,2013-05-19 14:21:00,
2013-05-19 10:32:00,69.0,63.0,-100.00,ESE,110,4.0,9.0,81,0.00,,,-99.99,,2013-05-19 14:32:00,
2013-05-19 10:42:00,70.0,63.0,-100.00,ESE,115,2.0,6.0,80,0.00,,,-99.99,,2013-05-19 14:42:00,
2013-05-19 10:52:00,71.0,64.0,-100.00,East,95,3.0,6.0,80,0.00,,,-99.99,,2013-05-19 14:52:00,
2013-05-19 11:02:00,71.0,64.0,-100.00,East,85,3.0,6.0,79,0.00,,,-99.99,,2013-05-19 15:02:00,
2013-05-19 11:11:00,73.0,64.0,-100.00,ESE,115,5.0,9.0,74,0.00,,,-99.99,,2013-05-19 15:11:00,
2013-05-19 11:22:00,73.0,64.0,-100.00,SE,135,4.0,9.0,73,0.00,,,-99.99,,2013-05-19 15:22:00,
2013-05-19 11:33:00,74.0,64.0,-100.00,ESE,110,6.0,11.0,70,0.00,,,-99.99,,2013-05-19 15:33:00,
2013-05-19 11:43:00,75.0,65.0,-100.00,East,95,4.0,9.0,71,0.00,,,-99.99,,2013-05-19 15:43:00,
2013-05-19 11:53:00,75.0,64.0,-100.00,ESE,105,7.0,11.0,70,0.00,,,-99.99,,2013-05-19 15:53:00,
2013-05-19 12:03:00,75.0,64.0,-100.00,ESE,115,5.0,12.0,69,0.00,,,-99.99,,2013-05-19 16:03:00,
2013-05-19 12:12:00,75.0,64.0,-100.00,ESE,110,7.0,9.0,69,0.00,,,-99.99,,2013-05-19 16:12:00,
2013-05-19 12:23:00,75.0,65.0,-100.00,SSE,150,4.0,9.0,69,0.00,,,-99.99,,2013-05-19 16:23:00,
2013-05-19 12:32:00,75.0,65.0,-100.00,SSE,150,4.0,9.0,69,0.00,,,-99.99,,2013-05-19 16:32:00,
2013-05-19 12:42:00,75.0,64.0,-100.00,SE,145,7.0,12.0,68,0.00,,,-99.99,,2013-05-19 16:42:00,
2013-05-19 12:52:00,76.0,64.0,-100.00,SE,130,5.0,10.0,66,0.00,,,-99.99,,2013-05-19 16:52:00,
2013-05-19 13:02:00,76.0,64.0,-100.00,SE,125,7.0,13.0,65,0.00,,,-99.99,,2013-05-19 17:02:00,
2013-05-19 13:12:00,76.0,64.0,-100.00,SE,135,8.0,12.0,67,0.00,,,-99.99,,2013-05-19 17:12:00,
2013-05-19 13:22:00,77.0,64.0,-100.00,SE,135,3.0,9.0,65,0.00,,,-99.99,,2013-05-19 17:22:00,
2013-05-19 13:32:00,76.0,64.0,-100.00,ESE,120,7.0,11.0,66,0.00,,,-99.99,,2013-05-19 17:32:00,
2013-05-19 13:42:00,77.0,64.0,-100.00,ESE,110,4.0,11.0,65,0.00,,,-99.99,,2013-05-19 17:42:00,
2013-05-19 13:52:00,77.0,65.0,-100.00,SE,140,6.0,9.0,66,0.00,,,-99.99,,2013-05-19 17:52:00,
2013-05-19 14:02:00,76.0,65.0,-100.00,ESE,110,9.0,12.0,67,0.00,,,-99.99,,2013-05-19 18:02:00,
2013-05-19 14:12:00,76.0,64.0,-100.00,ESE,110,6.0,12.0,66,0.00,,,-99.99,,2013-05-19 18:12:00,
2013-05-19 14:22:00,77.0,64.0,-100.00,East,95,7.0,12.0,66,0.00,,,-99.99,,2013-05-19 18:22:00,
2013-05-19 14:32:00,77.0,65.0,-100.00,East,95,3.0,11.0,66,0.00,,,-99.99,,2013-05-19 18:32:00,
2013-05-19 14:42:00,78.0,65.0,-100.00,East,90,4.0,7.0,64,0.00,,,-99.99,,2013-05-19 18:42:00,
2013-05-19 14:52:00,80.0,66.0,-100.00,ESE,115,5.0,10.0,62,0.00,,,-99.99,,2013-05-19 18:52:00,
2013-05-19 15:01:00,80.0,65.0,-100.00,SE,125,5.0,10.0,60,0.00,,,-99.99,,2013-05-19 19:01:00,
2013-05-19 15:11:00,80.0,65.0,-100.00,East,85,6.0,9.0,59,0.00,,,-99.99,,2013-05-19 19:11:00,
2013-05-19 15:22:00,80.0,64.0,-100.00,SE,140,5.0,10.0,58,0.00,,,-99.99,,2013-05-19 19:22:00,
2013-05-19 15:32:00,79.0,65.0,-100.00,East,100,2.0,6.0,61,0.00,,,-99.99,,2013-05-19 19:32:00,
2013-05-19 15:42:00,79.0,64.0,-100.00,SE,125,2.0,7.0,59,0.00,,,-99.99,,2013-05-19 19:42:00,
2013-05-19 15:52:00,78.0,65.0,-100.00,South,180,2.0,6.0,63,0.00,,,-99.99,,2013-05-19 19:52:00,
2013-05-19 16:02:00,76.0,65.0,-100.00,West,270,9.0,12.0,69,0.00,,,-99.99,,2013-05-19 20:02:00,
2013-05-19 16:11:00,75.0,65.0,-100.00,West,275,4.0,12.0,71,0.00,,,-99.99,,2013-05-19 20:11:00,
2013-05-19 16:21:00,76.0,66.0,-100.00,West,265,4.0,7.0,70,0.00,,,-99.99,,2013-05-19 20:21:00,
2013-05-19 16:32:00,77.0,66.0,-100.00,WNW,295,3.0,8.0,67,0.00,,,-99.99,,2013-05-19 20:32:00,
2013-05-19 16:42:00,78.0,66.0,-100.00,NW,305,2.0,6.0,66,0.00,,,-99.99,,2013-05-19 20:42:00,
2013-05-19 16:52:00,78.0,66.0,-100.00,WSW,255,2.0,7.0,67,0.00,,,-99.99,,2013-05-19 20:52:00,
2013-05-19 17:02:00,77.0,66.0,-100.00,SW,235,3.0,6.0,69,0.00,,,-99.99,,2013-05-19 21:02:00,
2013-05-19 17:11:00,76.0,66.0,-100.00,West,265,2.0,4.0,70,0.55,,,-99.99,,2013-05-19 21:11:00,
2013-05-19 17:22:00,77.0,65.0,-100.00,SE,135,2.0,4.0,67,0.00,,,-99.99,,2013-05-19 21:22:00,
2013-05-19 17:32:00,78.0,66.0,-100.00,SE,130,1.0,3.0,65,0.00,,,-99.99,,2013-05-19 21:32:00,
2013-05-19 17:43:00,78.0,65.0,-100.00,ESE,115,1.0,2.0,64,0.00,,,-99.99,,2013-05-19 21:43:00,
2013-05-19 17:53:00,79.0,65.0,-100.00,East,95,2.0,3.0,63,0.00,,,-99.99,,2013-05-19 21:53:00,
2013-05-19 18:03:00,79.0,65.0,-100.00,ESE,115,3.0,6.0,63,0.00,,,-99.99,,2013-05-19 22:03:00,
2013-05-19 18:12:00,79.0,66.0,-100.00,ESE,115,2.0,4.0,64,0.00,,,-99.99,,2013-05-19 22:12:00,
2013-05-19 18:23:00,78.0,65.0,-100.00,East,100,2.0,4.0,65,0.00,,,-99.99,,2013-05-19 22:23:00,
2013-05-19 18:33:00,78.0,65.0,-100.00,East,100,3.0,4.0,62,0.00,,,-99.99,,2013-05-19 22:33:00,
2013-05-19 18:42:00,79.0,65.0,-100.00,SE,130,2.0,3.0,61,0.00,,,-99.99,,2013-05-19 22:42:00,
2013-05-19 18:52:00,79.0,65.0,-100.00,ESE,120,5.0,7.0,63,0.00,,,-99.99,,2013-05-19 22:52:00,
2013-05-19 19:02:00,79.0,65.0,-100.00,ESE,120,6.0,9.0,63,0.00,,,-99.99,,2013-05-19 23:02:00,
2013-05-19 19:12:00,79.0,66.0,-100.00,East,100,6.0,10.0,64,0.00,,,-99.99,,2013-05-19 23:12:00,
2013-05-19 19:22:00,79.0,65.0,-100.00,ESE,105,6.0,12.0,64,0.00,,,-99.99,,2013-05-19 23:22:00,
2013-05-19 19:32:00,78.0,66.0,-100.00,ESE,115,4.0,12.0,64,0.00,,,-99.99,,2013-05-19 23:32:00,
2013-05-19 19:42:00,78.0,65.0,-100.00,ESE,115,5.0,8.0,64,0.00,,,-99.99,,2013-05-19 23:42:00,
2013-05-19 19:52:00,78.0,65.0,-100.00,ESE,115,2.0,6.0,66,0.00,,,-99.99,,2013-05-19 23:52:00,
2013-05-19 20:02:00,78.0,66.0,-100.00,SSE,165,0.0,5.0,65,0.00,,,-99.99,,2013-05-20 00:02:00,
2013-05-19 20:11:00,79.0,66.0,-100.00,SE,140,1.0,3.0,65,0.00,,,-99.99,,2013-05-20 00:11:00,
2013-05-19 20:22:00,78.0,66.0,-100.00,SE,130,2.0,5.0,66,0.00,,,-99.99,,2013-05-20 00:22:00,
2013-05-19 20:32:00,78.0,65.0,-100.00,SE,135,1.0,3.0,66,0.00,,,-99.99,,2013-05-20 00:32:00,
2013-05-19 20:42:00,77.0,65.0,-100.00,SSE,165,1.0,3.0,67,0.00,,,-99.99,,2013-05-20 00:42:00,
2013-05-19 20:52:00,77.0,66.0,-100.00,ESE,120,1.0,3.0,68,0.00,,,-99.99,,2013-05-20 00:52:00,
2013-05-19 21:01:00,76.0,66.0,-100.00,SE,125,1.0,3.0,69,0.00,,,-99.99,,2013-05-20 01:01:00,
2013-05-19 21:11:00,76.0,66.0,-100.00,East,85,1.0,2.0,70,0.00,,,-99.99,,2013-05-20 01:11:00,
2013-05-19 21:21:00,75.0,66.0,-100.00,ESE,105,1.0,3.0,73,0.00,,,-99.99,,2013-05-20 01:21:00,
2013-05-19 21:32:00,75.0,66.0,-100.00,NE,55,0.0,2.0,74,0.00,,,-99.99,,2013-05-20 01:32:00,
2013-05-19 21:42:00,74.0,66.0,-100.00,East,90,0.0,1.0,76,0.00,,,-99.99,,2013-05-20 01:42:00,
2013-05-19 21:52:00,73.0,66.0,-100.00,East,90,2.0,2.0,79,0.00,,,-99.99,,2013-05-20 01:52:00,
2013-05-19 22:02:00,73.0,66.0,-100.00,East,100,1.0,2.0,78,0.00,,,-99.99,,2013-05-20 02:02:00,
2013-05-19 22:12:00,73.0,66.0,-100.00,ESE,115,2.0,3.0,79,0.00,,,-99.99,,2013-05-20 02:12:00,
2013-05-19 22:21:00,73.0,66.0,-100.00,East,100,3.0,5.0,78,0.00,,,-99.99,,2013-05-20 02:21:00,
2013-05-19 22:32:00,72.0,66.0,-100.00,ESE,105,4.0,6.0,80,0.00,,,-99.99,,2013-05-20 02:32:00,
2013-05-19 22:42:00,72.0,66.0,-100.00,ESE,110,2.0,4.0,81,0.00,,,-99.99,,2013-05-20 02:42:00,
2013-05-19 22:51:00,72.0,66.0,-100.00,ESE,115,3.0,6.0,82,0.00,,,-99.99,,2013-05-20 02:51:00,
2013-05-19 23:02:00,72.0,66.0,-100.00,East,100,3.0,5.0,83,0.00,,,-99.99,,2013-05-20 03:02:00,
2013-05-19 23:11:00,71.0,66.0,-100.00,ESE,110,2.0,5.0,84,0.00,,,-99.99,,2013-05-20 03:11:00,
2013-05-19 23:21:00,71.0,66.0,-100.00,ESE,105,2.0,4.0,84,0.00,,,-99.99,,2013-05-20 03:21:00,
2013-05-19 23:33:00,71.0,66.0,-100.00,East,100,3.0,6.0,85,0.00,,,-99.99,,2013-05-20 03:33:00,
2013-05-19 23:43:00,71.0,66.0,-100.00,East,95,3.0,6.0,85,0.00,,,-99.99,,2013-05-20 03:43:00,
2013-05-19 23:52:00,71.0,66.0,-100.00,ESE,105,3.0,6.0,85,0.00,,,-99.99,,2013-05-20 03:52:00,